User: anonymous
Location: Pleiades Observatory
(40.1297°N, 91.5238°W)
Time: 05:21:54
(UTC-05:00)
Language:

Cosmos 1842 Rocket - Orbit

View from above orbital plane
View from above orbital plane
View from above satellite
View from above satellite

Ground track
Ground track

The orbit data is extracted from the following two-line orbital elements,

1 17912U 87038B   14293.36948463  .00000702  00000-0  84311-4 0  4948
2 17912 082.5036 240.9984 0020755 182.3983 177.7135 14.82461928483860
Epoch (UTC): 20 October 2014 08:52:03
Eccentricity: 0.0020755
inclination: 82.5036°
perigee height: 607 km
apogee height: 636 km
right ascension of ascending node: 240.9984°
argument of perigee: 182.3983°
revolutions per day: 14.82461928
mean anomaly at epoch: 177.7135°
orbit number at epoch: 48386

The dashed part of the orbit path shows where the satellite is in the earth's shadow,  

DLR